Regional Weather Roundup
Issued by NWS

Home | Current Version | Previous Version | Text Only | Print | Product List | Glossary Off
Versions: 1 2 3 4 5 6 7 8 9 10 11 12 13 14 15 16 17 18 19 20 21 22 23 24 25 26 27 28 29 30 31 32 33 34 35 36 37 38 39 40 41 42 43 44 45 46 47 48 49 50

443
ASUS43 KLSX 240157
RWRMO

WEATHER SUMMARY FOR MISSOURI
NATIONAL WEATHER SERVICE SPRINGFIELD MO
900 PM CDT FRI JUN 23 2017

NOTE: "FAIR" INDICATES FEW OR NO CLOUDS BELOW 12,000 FEET WITH NO
       SIGNIFICANT WEATHER AND/OR OBSTRUCTIONS TO VISIBILITY.
       CURRENT SKY AND/OR WEATHER CONDITIONS ARE NOT AVAILABLE FOR
       CHILLICOTHE AND FARMINGTON.

MOZ001>031-035>038-043-044-053-054-240300-
...NORTHERN AND WESTERN MISSOURI...

CITY           SKY/WX    TMP DP  RH WIND       PRES   REMARKS
KANSAS CTY INT PTCLDY    68  54  60 NW8       30.03R
LEE`S SUMMIT   CLEAR     72  54  53 NW10      30.03R
ST JOSEPH      CLEAR     67  55  65 NW6       30.03R
CHILLICOTHE      N/A     70  55  59 CALM      30.01R

$$
MOZ066>068-077>081-088>096-101>105-240300-
...SOUTHWEST MISSOURI...

CITY           SKY/WX    TMP DP  RH WIND       PRES   REMARKS
SPRINGFIELD    CLEAR     70  60  70 N7        29.98R
JOPLIN         CLEAR     72  63  73 N6        29.99R
BRANSON        MOCLDY    70  68  94 CALM      29.99R

$$
MOZ032>034-039>042-045>050-055>058-069>072-240300-
...CENTRAL MISSOURI...

CITY           SKY/WX    TMP DP  RH WIND       PRES   REMARKS
COLUMBIA       NOT AVBL
JEFFERSON CITY CLEAR     76  49  38 NW7       29.94R
ROLLA          CLOUDY    70  59  68 NW6       29.94R
SEDALIA        CLEAR     72  54  53 NW9       29.99R
WARRENSBURG    CLEAR     72  50  46 NW6       30.00R

$$
MOZ051-052-059>065-240300-
...EAST CENTRAL MISSOURI...

CITY           SKY/WX    TMP DP  RH WIND       PRES   REMARKS
ST LOUIS INTL  MOCLDY    79  57  46 NW8       29.89R

$$
MOZ072>076-082>087-097>100-106>115-240300-
...SOUTH CENTRAL AND SOUTHEAST MISSOURI...

CITY           SKY/WX    TMP DP  RH WIND       PRES   REMARKS
CAPE GIRARDEAU CLOUDY    74  62  66 N6        29.87R
POPLAR BLUFF   CLOUDY    74  71  91 NW5       29.89R
WEST PLAINS    CLOUDY    69  59  70 N5        29.97R

$$



USA.gov is the U.S. government's official web portal to all federal, state and local government web resources and services.